Weather History for Birchwood, AK

Change the Weather History Date:

Thursday, October 11, 2012

  Actual Average Record
Temperature  
Mean Temperature 37 °F -  
Max Temperature 44 °F 40 °F 68 °F (1986)
Min Temperature 30 °F 27 °F 19 °F (2007)
Degree Days  
Heating Degree Days 28    
Moisture  
Dew Point 32 °F    
Average Humidity 84    
Maximum Humidity 100    
Minimum Humidity 46    
Precipitation  
Precipitation 0.00 in - - ()
Sea Level Pressure  
Sea Level Pressure 29.76 in    
Wind  
Wind Speed 3 mph (SSW)    
Max Wind Speed 7 mph    
Max Gust Speed -    
Visibility 10 miles    
Events      
Averages and records for this station are not official NWS values.
T = Trace of Precipitation, MM = Missing Value Source: NWS Daily Summary

Daily Weather History Graph

Daily Weather History Graph

Search for Another Location

Airport:

Trip Planner

Search our weather history database for the weather conditions in past years. The results will help you decide how hot, cold, wet, or windy it might be!

Date:

Astronomy

Oct. 11, 2012 Rise Set
Actual Time 8:32 AM AKDT 6:55 PM AKDT
Civil Twilight 7:48 AM AKDT 7:39 PM AKDT
Nautical Twilight 6:57 AM AKDT 8:29 PM AKDT
Astronomical Twilight 6:06 AM AKDT 9:20 PM AKDT
Moon 3:19 AM AKDT (10/11) 5:28 PM AKDT (10/11)
Length of Visible Light 11h 51m
Length of Day
10h 23m
Waning Crescent, 17% of the Moon is Illuminated
Oct 11
Waning Crescent
Oct 15
New
Oct 21
First Quarter
Oct 29
Full
Nov 6
Last Quarter

Hourly Weather History & Observations

Time (AKDT) Temp. Windchill Dew Point Humidity Pressure Visibility Wind Dir Wind Speed Gust Speed Precip Events Conditions
12:16 AM 37.4 °F 34.9 °F 37.4 °F 100% 29.93 in 10.0 mi SE 3.5 mph - N/A   Clear
12:36 AM 35.6 °F - 35.6 °F 100% 29.93 in 10.0 mi Calm Calm - N/A   Clear
12:56 AM 35.6 °F - 35.6 °F 100% 29.93 in 10.0 mi Calm Calm - N/A   Clear
1:16 AM 35.6 °F 31.7 °F 35.6 °F 100% 29.93 in 10.0 mi South 4.6 mph - N/A   Clear
1:36 AM 35.6 °F 30.7 °F 33.8 °F 93% 29.92 in 10.0 mi SSW 5.8 mph - N/A   Clear
1:56 AM 35.6 °F 30.7 °F 33.8 °F 93% 29.92 in 10.0 mi South 5.8 mph - N/A   Clear
2:16 AM 37.4 °F 32.1 °F 35.6 °F 93% 29.91 in 10.0 mi South 6.9 mph - N/A   Clear
2:36 AM 35.6 °F 31.7 °F 33.8 °F 93% 29.91 in 10.0 mi SSE 4.6 mph - N/A   Clear
2:56 AM 37.4 °F 33.8 °F 33.8 °F 87% 29.90 in 10.0 mi SSE 4.6 mph - N/A   Clear
3:16 AM 37.4 °F 32.8 °F 33.8 °F 87% 29.90 in 10.0 mi South 5.8 mph - N/A   Clear
3:36 AM 37.4 °F 34.9 °F 33.8 °F 87% 29.89 in 10.0 mi South 3.5 mph - N/A   Clear
3:56 AM 35.6 °F 32.8 °F 33.8 °F 93% 29.88 in 10.0 mi South 3.5 mph - N/A   Clear
4:16 AM 35.6 °F 32.8 °F 32.0 °F 87% 29.88 in 10.0 mi South 3.5 mph - N/A   Clear
4:36 AM 35.6 °F - 30.2 °F 81% 29.87 in 10.0 mi Calm Calm - N/A   Clear
4:56 AM 33.8 °F - 32.0 °F 93% 29.87 in 10.0 mi Calm Calm - N/A   Clear
5:16 AM 33.8 °F - 32.0 °F 93% 29.87 in 10.0 mi Calm Calm - N/A   Clear
5:36 AM 33.8 °F - 33.8 °F 100% 29.86 in 10.0 mi Calm Calm - N/A   Clear
5:56 AM 33.8 °F - 32.0 °F 93% 29.86 in 10.0 mi Calm Calm - N/A   Clear
6:16 AM 32.0 °F 27.5 °F 30.2 °F 93% 29.85 in 10.0 mi SE 4.6 mph - N/A   Clear
6:36 AM 33.8 °F - 32.0 °F 93% 29.84 in 10.0 mi Calm Calm - N/A   Clear
6:56 AM 32.0 °F - 30.2 °F 93% 29.84 in 10.0 mi Calm Calm - N/A   Clear
7:16 AM 30.2 °F - 30.2 °F 100% 29.84 in 10.0 mi Calm Calm - N/A   Clear
7:36 AM 30.2 °F - 30.2 °F 100% 29.84 in 10.0 mi Calm Calm - N/A   Clear
7:56 AM 30.2 °F 26.7 °F 30.2 °F 100% 29.83 in 10.0 mi South 3.5 mph - N/A   Clear
8:16 AM 30.2 °F 26.7 °F 30.2 °F 100% 29.83 in 10.0 mi SSW 3.5 mph - N/A   Clear
8:36 AM 30.2 °F - 30.2 °F 100% 29.82 in 10.0 mi Calm Calm - N/A   Clear
8:56 AM 30.2 °F - 30.2 °F 100% 29.82 in 10.0 mi Calm Calm - N/A   Clear
9:16 AM 30.2 °F 25.4 °F 30.2 °F 100% 29.82 in 10.0 mi SSE 4.6 mph - N/A   Clear
9:36 AM 30.2 °F 25.4 °F 30.2 °F 100% 29.81 in 10.0 mi SSE 4.6 mph - N/A   Clear
9:56 AM 33.8 °F - 33.8 °F 100% 29.81 in 10.0 mi Calm Calm - N/A   Clear
10:16 AM 33.8 °F - 32.0 °F 93% 29.81 in 10.0 mi Calm Calm - N/A   Clear
10:36 AM 35.6 °F - 33.8 °F 93% 29.80 in 10.0 mi Calm Calm - N/A   Clear
10:56 AM 35.6 °F 32.8 °F 35.6 °F 100% 29.80 in 10.0 mi SSW 3.5 mph - N/A   Clear
11:16 AM 37.4 °F 32.1 °F 35.6 °F 93% 29.80 in 10.0 mi SSW 6.9 mph - N/A   Clear
11:36 AM 37.4 °F 32.8 °F 37.4 °F 100% 29.80 in 10.0 mi SSW 5.8 mph - N/A   Partly Cloudy
11:56 AM 39.2 °F 35.0 °F 37.4 °F 93% 29.79 in 10.0 mi South 5.8 mph - N/A   Partly Cloudy
12:16 PM 39.2 °F 35.9 °F 35.6 °F 87% 29.79 in 10.0 mi SSW 4.6 mph - N/A   Clear
12:36 PM 41.0 °F 38.0 °F 35.6 °F 81% 29.78 in 10.0 mi SSW 4.6 mph - N/A   Clear
12:56 PM 42.8 °F 40.1 °F 35.6 °F 76% 29.77 in 10.0 mi South 4.6 mph - N/A   Clear
1:16 PM 41.0 °F 38.0 °F 35.6 °F 81% 29.77 in 10.0 mi West 4.6 mph - N/A   Clear
1:36 PM 42.8 °F - 35.6 °F 76% 29.76 in 10.0 mi Calm Calm - N/A   Clear
1:56 PM 42.8 °F - 33.8 °F 70% 29.75 in 10.0 mi Calm Calm - N/A   Clear
2:16 PM 42.8 °F 41.1 °F 33.8 °F 70% 29.74 in 10.0 mi West 3.5 mph - N/A   Clear
2:36 PM 42.8 °F 41.1 °F 33.8 °F 70% 29.74 in 10.0 mi West 3.5 mph - N/A   Clear
2:56 PM 44.6 °F 43.1 °F 33.8 °F 66% 29.73 in 10.0 mi West 3.5 mph - N/A   Clear
3:16 PM 44.6 °F - 32.0 °F 61% 29.72 in 10.0 mi Calm Calm - N/A   Clear
3:36 PM 44.6 °F 43.1 °F 30.2 °F 57% 29.72 in 10.0 mi West 3.5 mph - N/A   Clear
3:56 PM 44.6 °F 41.4 °F 30.2 °F 57% 29.71 in 10.0 mi West 5.8 mph - N/A   Clear
4:16 PM 44.6 °F 41.4 °F 28.4 °F 53% 29.70 in 10.0 mi West 5.8 mph - N/A   Clear
4:36 PM 44.6 °F 42.2 °F 28.4 °F 53% 29.69 in 10.0 mi West 4.6 mph - N/A   Clear
4:56 PM 44.6 °F 43.1 °F 28.4 °F 53% 29.68 in 10.0 mi WSW 3.5 mph - N/A   Clear
5:16 PM 44.6 °F 43.1 °F 28.4 °F 53% 29.67 in 10.0 mi West 3.5 mph - N/A   Clear
5:36 PM 44.6 °F 43.1 °F 28.4 °F 53% 29.66 in 10.0 mi NNW 3.5 mph - N/A   Clear
5:56 PM 44.6 °F - 24.8 °F 46% 29.66 in 10.0 mi Calm Calm - N/A   Clear
6:16 PM 44.6 °F - 30.2 °F 57% 29.65 in 10.0 mi Calm Calm - N/A   Clear
6:36 PM 42.8 °F - 30.2 °F 61% 29.64 in 10.0 mi Calm Calm - N/A   Clear
6:56 PM 41.0 °F 39.0 °F 28.4 °F 61% 29.64 in 10.0 mi SSW 3.5 mph - N/A   Clear
7:16 PM 39.2 °F - 28.4 °F 65% 29.63 in 10.0 mi Calm Calm - N/A   Clear
7:36 PM 37.4 °F - 28.4 °F 70% 29.63 in 10.0 mi Calm Calm - N/A   Clear
7:56 PM 37.4 °F - 28.4 °F 70% 29.62 in 10.0 mi Calm Calm - N/A   Clear
8:16 PM 37.4 °F 34.9 °F 30.2 °F 75% 29.62 in 10.0 mi SSE 3.5 mph - N/A   Clear
8:36 PM 35.6 °F 32.8 °F 28.4 °F 75% 29.61 in 10.0 mi SE 3.5 mph - N/A   Clear
8:56 PM 35.6 °F - 30.2 °F 81% 29.61 in 10.0 mi Calm Calm - N/A   Clear
9:16 PM 33.8 °F - 30.2 °F 87% 29.60 in 10.0 mi Calm Calm - N/A   Clear
9:36 PM 33.8 °F - 30.2 °F 87% 29.60 in 10.0 mi Calm Calm - N/A   Clear
9:56 PM 33.8 °F - 30.2 °F 87% 29.59 in 10.0 mi Calm Calm - N/A   Clear
10:16 PM 33.8 °F - 30.2 °F 87% 29.59 in 10.0 mi Calm Calm - N/A   Clear
10:36 PM 33.8 °F - 30.2 °F 87% 29.58 in 10.0 mi Calm Calm - N/A   Clear
10:56 PM 32.0 °F - 30.2 °F 93% 29.57 in 10.0 mi Calm Calm - N/A   Clear
11:16 PM 30.2 °F - 30.2 °F 100% 29.57 in 10.0 mi Calm Calm - N/A   Clear
11:36 PM 30.2 °F - 30.2 °F 100% 29.56 in 10.0 mi Calm Calm - N/A   Clear
11:56 PM 30.2 °F - 28.4 °F 93% 29.55 in 10.0 mi Calm Calm - N/A   Clear